MONITOR-E/SL-19

Satellite information

Favourite Embed

Satellite Type and Status

PAYLOADIN ORBIT

Key statistics

Satellite MONITOR-E/SL-19 at a glance.

Uptime

7982

Days in orbit

Revolutions

≈ 14.4

Per day

Orbit

SSO

Sun Synchronous Orbit

Inclination

98.6

Latest

Satellite identification and parameters

Extended collection of information and parameters for MONITOR-E/SL-19.

Object identification

Identified? True

Debris? False

Object name: MONITOR-E/SL-19

International designator: 2003-031A

Object number (NORAD): 27840

Object ID (CCSDS): 27840

Country: COMMONWEALTH OF INDEPENDENT STATES (CIS)

Current information (Y/N): Y

RCS size: LARGE

Orbital parameters

Period: 100.023 minutes

Inclination: 98.5803 deg

SMA: 7137.717 km

Apoapsis: 829.691 km

Periapsis: 689.474 km

RAAN: 99.8423 deg

Eccentricy: 0.0098222

Argument of periapsis: 114.144 deg

Mean anomaly: 247.0057 deg

Mean motion: 14.39672579 rev/day

Mean motion (dot): 0.0000018 rev/day2

B* drag term: 0.00006835 1/REarth

Two-line elements (TLE)

Creation date: May 7, 2025, 3:14 a.m.

Reference frame: TEME

Reference center: EARTH

Epoch: May 6, 2025, 8:51 p.m. UTC

TLE line 0: 0 MONITOR-E/SL-19

TLE line 1: 1 27840U 03031A 25126.86886011 .00000180 00000-0 68350-4 0 9997

TLE line 2: 2 27840 98.5803 99.8423 0098222 114.1440 247.0057 14.39672579147537

Live tracking on map

Real-time ground track for satellite MONITOR-E/SL-19.

In-orbit conjunctions

A list of the most updated potential collisions computed for object MONITOR-E/SL-19.

Target Orbit TCA Probability of collision Miss distance Type
THORAD AGENA D DEB SSO 2025-03-01 23:59:38 0.0001514995 140.0 (m) DEBRIS
COSMOS 2251 DEB LEO 2024-12-10 12:00:13 0.0002816259 217.0 (m) DEBRIS
SL-16 DEB LEO 2024-10-20 12:35:44 0.0003216103 188.0 (m) DEBRIS

Associated space launch

MIMOSA (Micro Measurements Of Satellite Acceleration) is a microsatellite to measure atmospheric drag.

MONITOR-E/SL-19 was lifted into orbit during the mission ‘Rokot / Briz-KM | Mimosa’, on board a Rokot/Briz-KM space rocket.

The launch took place on June 30, 2003, 2:15 p.m. from 133/3 (133L).

For more information about the launch, click the button.

Launch to space Rokot / Briz-KM | Mimosa
Rokot / Briz-KM | Mimosa

Agency: N/A

Status: Launch Successful

Launch date: June 30, 2003, 2:15 p.m. UTC

Rocket: Rokot/Briz-KM

Launch pad: 133/3 (133L)

Location: Plesetsk Cosmodrome, Russian Federation

...

Latest news about this satellite

There are no fresh news available about this satellite. Check back as we update our databases every day.


Newsletter sign-up

Weekly statistics, charts and insights to help you stay on top of the space industry.